Weather History for Washington, GA

Change the Weather History Date:

Monday, November 5, 2012

  Actual Average (KDBN) Record (KDBN)
Temperature  
Mean Temperature 55 °F -  
Max Temperature 64 °F 70 °F 88 °F (1961)
Min Temperature 46 °F 44 °F 27 °F (1976)
Degree Days  
Heating Degree Days 10    
Growing Degree Days 5 (Base 50)    
Moisture  
Dew Point 40 °F    
Average Humidity 59    
Maximum Humidity 87    
Minimum Humidity 32    
Precipitation  
Precipitation 0.00 in - - ()
Sea Level Pressure  
Sea Level Pressure 30.02 in    
Wind  
Wind Speed 0 mph ()    
Max Wind Speed 4 mph    
Max Gust Speed -    
Visibility 10.0 miles    
Events      
Averages and records for this station are not official NWS values.
T = Trace of Precipitation, MM = Missing Value Source: Averaged Metar Reports

Daily Weather History Graph

Daily Weather History Graph

Search for Another Location

Airport:

Trip Planner

Search our weather history database for the weather conditions in past years. The results will help you decide how hot, cold, wet, or windy it might be!

Date:

Astronomy

Nov. 05, 2012 Rise Set
Actual Time 6:54 AM EST 5:34 PM EST
Civil Twilight 6:28 AM EST 6:00 PM EST
Nautical Twilight 5:58 AM EST 6:30 PM EST
Astronomical Twilight 5:29 AM EST 6:59 PM EST
Moon 11:10 PM EST (11/5) 12:12 PM EST (11/5)
Length of Visible Light 11h 32m
Length of Day
10h 40m
Waning Gibbous, 63% of the Moon is Illuminated
Nov 5
Waning Gibbous
Nov 6
Last Quarter
Nov 13
New
Nov 20
First Quarter
Nov 28
Full

Hourly Weather History & Observations

Time (EST) Temp. Dew Point Humidity Pressure Visibility Wind Dir Wind Speed Gust Speed Precip Events Conditions
12:15 AM 53.6 °F 41.0 °F 62% 29.96 in 10.0 mi Calm Calm - N/A   Clear
12:35 AM 53.6 °F 41.0 °F 62% 29.96 in 10.0 mi Calm Calm - N/A   Clear
12:55 AM 53.6 °F 41.0 °F 62% 29.97 in 10.0 mi Calm Calm - N/A   Clear
1:15 AM 53.6 °F 41.0 °F 62% 29.97 in 10.0 mi Calm Calm - N/A   Clear
1:35 AM 53.6 °F 42.8 °F 67% 29.97 in 10.0 mi Calm Calm - N/A   Clear
1:55 AM 53.6 °F 42.8 °F 67% 29.97 in 10.0 mi Calm Calm - N/A   Clear
2:15 AM 51.8 °F 41.0 °F 67% 29.97 in 10.0 mi Calm Calm - N/A   Clear
2:35 AM 51.8 °F 41.0 °F 67% 29.98 in 10.0 mi Calm Calm - N/A   Clear
2:55 AM 50.0 °F 41.0 °F 71% 29.99 in 10.0 mi Calm Calm - N/A   Clear
3:15 AM 50.0 °F 39.2 °F 66% 30.00 in 10.0 mi Calm Calm - N/A   Clear
3:35 AM 48.2 °F 39.2 °F 71% 30.00 in 10.0 mi Calm Calm - N/A   Scattered Clouds
3:55 AM 48.2 °F 39.2 °F 71% 30.01 in 10.0 mi Calm Calm - N/A   Mostly Cloudy
4:15 AM 46.4 °F 39.2 °F 76% 30.01 in 10.0 mi Calm Calm - N/A   Scattered Clouds
4:35 AM 46.4 °F 41.0 °F 81% 30.02 in 10.0 mi Calm Calm - N/A   Clear
4:55 AM 46.4 °F 41.0 °F 81% 30.03 in 10.0 mi Calm Calm - N/A   Clear
5:15 AM 46.4 °F 41.0 °F 81% 30.03 in 10.0 mi Calm Calm - N/A   Scattered Clouds
5:35 AM 46.4 °F 42.8 °F 87% 30.03 in 10.0 mi Calm Calm - N/A   Scattered Clouds
5:55 AM 46.4 °F 42.8 °F 87% 30.04 in 10.0 mi Calm Calm - N/A   Scattered Clouds
6:15 AM 46.4 °F 42.8 °F 87% 30.04 in 10.0 mi Calm Calm - N/A   Scattered Clouds
6:35 AM 46.4 °F 42.8 °F 87% 30.05 in 10.0 mi Calm Calm - N/A   Clear
6:55 AM 46.4 °F 42.8 °F 87% 30.05 in 10.0 mi Calm Calm - N/A   Clear
7:15 AM 46.4 °F 42.8 °F 87% 30.06 in 10.0 mi Calm Calm - N/A   Clear
7:35 AM 46.4 °F 42.8 °F 87% 30.06 in 10.0 mi Calm Calm - N/A   Clear
7:55 AM 50.0 °F 44.6 °F 82% 30.07 in 10.0 mi Calm Calm - N/A   Clear
8:15 AM 53.6 °F 44.6 °F 72% 30.07 in 10.0 mi Calm Calm - N/A   Clear
8:35 AM 53.6 °F 41.0 °F 62% 30.08 in 10.0 mi ENE 3.5 mph - N/A   Clear
8:55 AM 53.6 °F 37.4 °F 54% 30.08 in 10.0 mi Calm Calm - N/A   Clear
9:15 AM 55.4 °F 39.2 °F 54% 30.08 in 10.0 mi Calm Calm - N/A   Clear
9:35 AM 55.4 °F 41.0 °F 58% 30.08 in 10.0 mi ENE 3.5 mph - N/A   Clear
9:55 AM 59.0 °F 41.0 °F 51% 30.08 in 10.0 mi Calm Calm - N/A   Clear
10:15 AM 59.0 °F 41.0 °F 51% 30.08 in 10.0 mi Calm Calm - N/A   Clear
10:35 AM 59.0 °F 41.0 °F 51% 30.08 in 10.0 mi Calm Calm - N/A   Clear
10:55 AM 59.0 °F 41.0 °F 51% 30.08 in 10.0 mi Calm Calm - N/A   Clear
11:15 AM 59.0 °F 37.4 °F 45% 30.07 in 10.0 mi Calm Calm - N/A   Clear
11:35 AM 60.8 °F 39.2 °F 45% 30.07 in 10.0 mi Calm Calm - N/A   Clear
11:55 AM 59.0 °F 37.4 °F 45% 30.06 in 10.0 mi Calm Calm - N/A   Clear
12:15 PM 60.8 °F 39.2 °F 45% 30.05 in 10.0 mi Calm Calm - N/A   Clear
12:35 PM 62.6 °F 39.2 °F 42% 30.04 in 10.0 mi Calm Calm - N/A   Scattered Clouds
12:55 PM 60.8 °F 37.4 °F 42% 30.03 in 10.0 mi Calm Calm - N/A   Scattered Clouds
1:15 PM 60.8 °F 37.4 °F 42% 30.02 in 10.0 mi Calm Calm - N/A   Scattered Clouds
1:35 PM 60.8 °F 35.6 °F 39% 30.01 in 10.0 mi Calm Calm - N/A   Clear
1:55 PM 64.4 °F 35.6 °F 34% 30.00 in 10.0 mi Calm Calm - N/A   Clear
2:15 PM 64.4 °F 35.6 °F 34% 30.00 in 10.0 mi Calm Calm - N/A   Clear
2:35 PM 64.4 °F 33.8 °F 32% 29.99 in 10.0 mi Calm Calm - N/A   Clear
2:55 PM 64.4 °F 33.8 °F 32% 29.98 in 10.0 mi Calm Calm - N/A   Clear
3:15 PM 64.4 °F 33.8 °F 32% 29.98 in 10.0 mi Calm Calm - N/A   Clear
3:35 PM 64.4 °F 33.8 °F 32% 29.99 in 10.0 mi Calm Calm - N/A   Clear
3:55 PM 64.4 °F 35.6 °F 34% 29.99 in 10.0 mi Calm Calm - N/A   Clear
4:15 PM 64.4 °F 33.8 °F 32% 29.99 in 10.0 mi Calm Calm - N/A   Clear
4:35 PM 64.4 °F 35.6 °F 34% 29.99 in 10.0 mi Calm Calm - N/A   Clear
4:55 PM 60.8 °F 35.6 °F 39% 29.98 in 10.0 mi Calm Calm - N/A   Clear
5:15 PM 60.8 °F 37.4 °F 42% 29.99 in 10.0 mi Calm Calm - N/A   Clear
5:35 PM 59.0 °F 39.2 °F 48% 29.99 in 10.0 mi Calm Calm - N/A   Clear
5:55 PM 55.4 °F 41.0 °F 58% 29.99 in 10.0 mi Calm Calm - N/A   Clear
6:15 PM 55.4 °F 41.0 °F 58% 30.00 in 10.0 mi Calm Calm - N/A   Clear
6:35 PM 55.4 °F 39.2 °F 54% 30.00 in 10.0 mi Calm Calm - N/A   Clear
6:55 PM 55.4 °F 41.0 °F 58% 30.01 in 10.0 mi Calm Calm - N/A   Clear
7:15 PM 53.6 °F 41.0 °F 62% 30.01 in 10.0 mi Calm Calm - N/A   Clear
7:35 PM 53.6 °F 41.0 °F 62% 30.00 in 10.0 mi Calm Calm - N/A   Clear
7:55 PM 53.6 °F 39.2 °F 58% 30.00 in 10.0 mi Calm Calm - N/A   Clear
8:15 PM 53.6 °F 41.0 °F 62% 30.00 in 10.0 mi Calm Calm - N/A   Clear
8:35 PM 53.6 °F 41.0 °F 62% 30.00 in 10.0 mi Calm Calm - N/A   Clear
8:55 PM 53.6 °F 42.8 °F 67% 30.01 in 10.0 mi Calm Calm - N/A   Clear
9:15 PM 53.6 °F 41.0 °F 62% 30.02 in 10.0 mi Calm Calm - N/A   Clear
9:35 PM 53.6 °F 42.8 °F 67% 30.03 in 10.0 mi Calm Calm - N/A   Clear
9:55 PM 53.6 °F 42.8 °F 67% 30.02 in 10.0 mi Calm Calm - N/A   Clear
10:15 PM 51.8 °F 42.8 °F 71% 30.01 in 10.0 mi Calm Calm - N/A   Clear
10:35 PM 53.6 °F 42.8 °F 67% 30.01 in 10.0 mi Calm Calm - N/A   Clear
10:55 PM 53.6 °F 42.8 °F 67% 30.00 in 10.0 mi Calm Calm - N/A   Clear
11:15 PM 53.6 °F 42.8 °F 67% 30.00 in 10.0 mi Calm Calm - N/A   Clear
11:35 PM 53.6 °F 41.0 °F 62% 29.99 in 10.0 mi Calm Calm - N/A   Clear
11:55 PM 53.6 °F 41.0 °F 62% 29.99 in 10.0 mi Calm Calm - N/A   Clear